Weather History for HESN - December, 2012

Change the Weather History Date:

Wednesday, December 5, 2012

  Actual Average Record
Temperature  
Mean Temperature 70 °F -  
Max Temperature 80 °F 72 °F 93 °F (2005)
Min Temperature 60 °F 51 °F 50 °F (2001)
Cooling Degree Days 5    
Growing Degree Days 20 (Base 50)    
Moisture  
Dew Point 43 °F    
Average Humidity 36    
Maximum Humidity 49    
Minimum Humidity 16    
Precipitation  
Precipitation 0.00 in 0.00 in - ()
Sea Level Pressure  
Sea Level Pressure 29.95 in    
Wind  
Wind Speed 7 mph ()    
Max Wind Speed 14 mph    
Max Gust Speed -    
Visibility 6.0 miles    
Events      
Averages and records for this station are not official NWS values.
T = Trace of Precipitation, MM = Missing Value Source: Averaged Metar Reports

Daily Weather History Graph

Daily Weather History Graph

Search for Another Location

Airport or City:

Trip Planner

Search our weather history database for the weather conditions in past years. The results will help you decide how hot, cold, wet, or windy it might be!

Date:

Astronomy

Dec. 05, 2012 Rise Set
Actual Time 6:17 AM EET 5:01 PM EET
Civil Twilight 5:53 AM EET 5:25 PM EET
Nautical Twilight 5:24 AM EET 5:53 PM EET
Astronomical Twilight 4:57 AM EET 6:21 PM EET
Moon 10:59 PM EET (12/5) 10:57 AM EET (12/5)
Length of Visible Light 11h 32m
Length of Day
10h 43m
Waning Gibbous, 63% of the Moon is Illuminated
Dec 5
Waning Gibbous
Dec 6
Last Quarter
Dec 13
New
Dec 20
First Quarter
Dec 28
Full

Hourly Weather History & Observations

Time (EET) Temp. Dew Point Humidity Pressure Visibility Wind Dir Wind Speed Gust Speed Precip Events Conditions
12:00 AM 68.0 °F 48.2 °F 49% 29.95 in - North 5.8 mph - N/A   Clear
4:00 AM 64.4 °F 41.0 °F 42% 29.92 in - North 6.9 mph - N/A   Clear
5:00 AM 62.6 °F 41.0 °F 45% 29.92 in - NNE 4.6 mph - N/A   Clear
6:00 AM 60.8 °F 39.2 °F 45% 29.95 in - North 5.8 mph - N/A   Clear
7:00 AM 60.8 °F 39.2 °F 45% 29.95 in - North 6.9 mph - N/A   Clear
8:00 AM 64 °F 40 °F 30% 29.97 in 6 mi North 8.1 mph - -  
8:00 AM 64.4 °F 41.0 °F 42% 29.98 in - North 8.1 mph - N/A   Clear
9:00 AM 68.0 °F 41.0 °F 37% 29.98 in - North 11.5 mph - N/A   Clear
10:00 AM 69.8 °F 41.0 °F 35% 29.98 in - North 10.4 mph - N/A   Clear
11:00 AM 73.4 °F 42.8 °F 33% 29.95 in - North 11.5 mph - N/A   Clear
12:00 PM 75.2 °F 42.8 °F 31% 29.95 in - North 10.4 mph - N/A   Clear
1:00 PM 77.0 °F 42.8 °F 29% 29.92 in - North 10.4 mph - N/A   Clear
2:00 PM 79 °F 41 °F 16% 29.90 in 6 mi North 12.7 mph - -  
2:00 PM 78.8 °F 41.0 °F 26% 29.92 in - North 12.7 mph - N/A   Clear
4:00 PM 77.0 °F 39.2 °F 26% 29.92 in - North 13.8 mph - N/A   Clear
5:00 PM 75.2 °F 41.0 °F 29% 29.95 in - North 9.2 mph - N/A   Clear
6:00 PM 73.4 °F 42.8 °F 33% 29.98 in - North 6.9 mph - N/A   Clear
7:00 PM 73.4 °F 46.4 °F 38% 29.98 in - North 9.2 mph - N/A   Clear
8:00 PM 71 °F 45 °F 29% 29.97 in 6 mi North 10.4 mph - -  
8:00 PM 71.6 °F 44.6 °F 38% 29.98 in - North 10.4 mph - N/A   Clear
9:00 PM 69.8 °F 46.4 °F 43% 29.98 in - NNE 5.8 mph - N/A   Clear
10:00 PM 68.0 °F 48.2 °F 49% 29.98 in - NNE 4.6 mph - N/A   Clear
11:00 PM 68.0 °F 48.2 °F 49% 29.98 in - North 4.6 mph - N/A   Clear